Location: Falkner
(32.6954°N, 86.0502°W)
Time: 12:22:39
(UTC+00:00)

Okean O Rocket - Pass Details

Date: 29 October 2020
Orbit: 623 x 644 km, 98.2° (Epoch: 04 December)

Event Time Altitude Azimuth Distance (km) Brightness Sun altitude
Rises 23:47:38 0° 185° (S) 2,908 5.2 -11.5°
Reaches altitude 10° 23:49:58 10° 193° (SSW) 2,001 4.5 -12.0°
Maximum altitude 23:53:59 37° 261° (W) 979 3.3 -12.8°
Drops below altitude 10° 23:58:02 10° 329° (NNW) 2,003 4.5 -13.7°
Sets 00:00:22 0° 338° (NNW) 2,911 5.2 -14.2°
